Date, Volume
2015-09-01, 241826
2015-10-01, 267988
2015-11-01, 246561
2015-12-01, 229905
2016-01-01, 237037
2016-02-01, 251296
2016-03-01, 213231
2016-04-01, 191829
2016-05-01, 178397
2016-06-01, 233117
2016-07-01, 193408
2016-08-01, 173643
2016-09-01, 180759
2016-10-01, 198183
2016-11-01, 232286
2016-12-01, 198992
2017-01-01, 196638
2017-02-01, 192666
2017-03-01, 195812
2017-04-01, 178364
2017-05-01, 182341
2017-06-01, 180750
2017-07-01, 171994
2017-08-01, 185478
2017-09-01, 189470
2017-10-01, 175283
2017-11-01, 178454
2017-12-01, 167754
2018-01-01, 194965
2018-02-01, 257934
2018-03-01, 218650
2018-04-01, 187420
2018-05-01, 164983
2018-06-01, 159411
2018-07-01, 160212
2018-08-01, 165791
2018-09-01, 165377
2018-10-01, 225008
2018-11-01, 191780
2018-12-01, 219060
2019-01-01, 213891
2019-02-01, 190200
2019-03-01, 185856
2019-04-01, 170933
2019-05-01, 208745
2019-06-01, 166585
2019-07-01, 186232
2019-08-01, 219440
2019-09-01, 194170
2019-10-01, 195366
2019-11-01, 194172
2019-12-01, 171718
2020-01-01, 226989
2020-02-01, 312082
2020-03-01, 862922
2020-04-01, 522664
2020-05-01, 378097
2020-06-01, 439484
2020-07-01, 328724
2020-08-01, 274562
2020-09-01, 315651
2020-10-01, 326738
2020-11-01, 335777
2020-12-01, 294050
2021-01-01, 327630
2021-02-01, 324219
2021-03-01, 305698
2021-04-01, 238485
2021-05-01, 259304
2021-06-01, 200753
2021-07-01, 227514
2021-08-01, 198157
2021-09-01, 236600
2021-10-01, 216470
2021-11-01, 269294
2021-12-01, 220087
2022-01-01, 329237
2022-02-01, 402599